Weather History for Mount Carmel, IL

Change the Weather History Date:

Saturday, April 28, 2012

  Actual Average (KLWV) Record (KLWV)
Temperature  
Mean Temperature 68 °F 60 °F  
Max Temperature 82 °F 71 °F 82 °F (2012)
Min Temperature 55 °F 50 °F 33 °F (1992)
Degree Days  
Heating Degree Days 0 6  
Month to date heating degree days 285  
Since 1 July heating degree days 4582  
Cooling Degree Days 4 1  
Month to date cooling degree days 22  
Year to date cooling degree days 24  
Growing Degree Days 18 (Base 50)    
Moisture  
Dew Point 51 °F    
Average Humidity 62    
Maximum Humidity 94    
Minimum Humidity 36    
Precipitation  
Precipitation 0.40 in 0.21 in 1.53 in (2014)
Month to date precipitation 3.72  
Year to date precipitation 11.54  
Sea Level Pressure  
Sea Level Pressure 29.95 in    
Wind  
Wind Speed 11 mph (ESE)    
Max Wind Speed 16 mph    
Max Gust Speed 36 mph    
Visibility 10 miles    
Events Rain , Thunderstorm    
T = Trace of Precipitation, MM = Missing Value Source: NWS Daily Summary

Daily Weather History Graph

Daily Weather History Graph

Search for Another Location

Airport:

Trip Planner

Search our weather history database for the weather conditions in past years. The results will help you decide how hot, cold, wet, or windy it might be!

Date:

Astronomy

Apr. 28, 2012 Rise Set
Actual Time 5:56 AM CDT 7:40 PM CDT
Civil Twilight 5:28 AM CDT 8:09 PM CDT
Nautical Twilight 4:53 AM CDT 8:43 PM CDT
Astronomical Twilight 4:17 AM CDT 9:20 PM CDT
Moon 11:36 AM CDT (4/28) 1:04 AM CDT (4/28)
Length of Visible Light 14h 40m
Length of Day
13h 43m
Waxing Crescent, 43% of the Moon is Illuminated
Apr 28
Waxing Crescent
Apr 29
First Quarter
May 5
Full
May 12
Last Quarter
May 20
New

Hourly Weather History & Observations

Time (CDT) Temp. Heat Index Dew Point Humidity Pressure Visibility Wind Dir Wind Speed Gust Speed Precip Events Conditions
12:15 AM 59.0 °F - 32.0 °F 36% 30.02 in 10.0 mi East 11.5 mph - N/A   Overcast
12:35 AM 59.0 °F - 32.0 °F 36% 30.02 in 10.0 mi East 12.7 mph - N/A   Overcast
1:15 AM 59.0 °F - 32.0 °F 36% 30.01 in 10.0 mi East 11.5 mph - N/A   Overcast
2:15 AM 59.0 °F - 33.8 °F 39% 29.98 in 10.0 mi East 13.8 mph - N/A   Overcast
2:35 AM 59.0 °F - 33.8 °F 39% 29.97 in 10.0 mi East 13.8 mph - N/A   Overcast
2:55 AM 59.0 °F - 33.8 °F 39% 29.96 in 10.0 mi ESE 15.0 mph - N/A   Overcast
3:15 AM 59.0 °F - 33.8 °F 39% 29.96 in 10.0 mi East 11.5 mph - N/A   Overcast
3:35 AM 57.2 °F - 35.6 °F 44% 29.95 in 10.0 mi ESE 13.8 mph - N/A   Mostly Cloudy
3:55 AM 55.4 °F - 35.6 °F 47% 29.95 in 10.0 mi ESE 12.7 mph - N/A   Scattered Clouds
4:15 AM 55.4 °F - 35.6 °F 47% 29.95 in 10.0 mi ESE 13.8 mph - N/A   Mostly Cloudy
4:35 AM 57.2 °F - 35.6 °F 44% 29.94 in 10.0 mi ESE 13.8 mph 18.4 mph N/A   Overcast
4:55 AM 55.4 °F - 37.4 °F 51% 29.95 in 10.0 mi ESE 10.4 mph - N/A   Light Drizzle
5:15 AM 55.4 °F - 37.4 °F 51% 29.95 in 10.0 mi ESE 10.4 mph - N/A   Overcast
5:35 AM 55.4 °F - 37.4 °F 51% 29.95 in 10.0 mi ESE 11.5 mph - N/A   Overcast
5:55 AM 55.4 °F - 37.4 °F 51% 29.95 in 10.0 mi ESE 11.5 mph - N/A   Scattered Clouds
6:15 AM 55.4 °F - 37.4 °F 51% 29.94 in 10.0 mi ESE 9.2 mph - N/A   Scattered Clouds
6:35 AM 55.4 °F - 37.4 °F 51% 29.95 in 10.0 mi East 9.2 mph - N/A   Scattered Clouds
6:55 AM 55.4 °F - 39.2 °F 54% 29.95 in 10.0 mi ESE 9.2 mph - N/A Thunderstorm Scattered Clouds
7:15 AM 57.2 °F - 39.2 °F 51% 29.94 in 10.0 mi SE 10.4 mph - N/A   Scattered Clouds
7:35 AM 59.0 °F - 41.0 °F 51% 29.95 in 10.0 mi ESE 11.5 mph - N/A   Mostly Cloudy
7:55 AM 59.0 °F - 41.0 °F 51% 29.94 in 10.0 mi SE 11.5 mph - N/A   Overcast
8:15 AM 59.0 °F - 42.8 °F 55% 29.94 in 10.0 mi SE 10.4 mph - N/A Rain Light Rain
8:35 AM 59.0 °F - 44.6 °F 59% 29.94 in 10.0 mi SSE 9.2 mph - N/A   Overcast
8:55 AM 60.8 °F - 44.6 °F 55% 29.94 in 10.0 mi SSE 8.1 mph - N/A   Overcast
9:35 AM 64.4 °F - 48.2 °F 56% 29.93 in 10.0 mi SE 8.1 mph - N/A   Overcast
9:55 AM 66.2 °F - 50.0 °F 56% 29.93 in 10.0 mi SSE 5.8 mph - N/A   Overcast
10:15 AM 68.0 °F - 51.8 °F 56% 29.93 in 10.0 mi SSE 5.8 mph - N/A   Overcast
10:35 AM 69.8 °F - 53.6 °F 56% 29.93 in 10.0 mi South 6.9 mph - N/A   Overcast
10:55 AM 71.6 °F - 55.4 °F 57% 29.93 in 10.0 mi SW 8.1 mph - N/A   Overcast
11:15 AM 73.4 °F - 57.2 °F 57% 29.93 in 10.0 mi SW 6.9 mph - N/A   Overcast
11:55 AM 77.0 °F - 59.0 °F 54% 29.91 in 10.0 mi South 8.1 mph - N/A   Scattered Clouds
12:15 PM 78.8 °F - 59.0 °F 51% 29.91 in 10.0 mi WSW 5.8 mph - N/A   Clear
12:55 PM 80.6 °F 81.5 °F 60.8 °F 51% 29.90 in 10.0 mi SW 9.2 mph 18.4 mph N/A   Mostly Cloudy
1:15 PM 80.6 °F 81.5 °F 60.8 °F 51% 29.89 in 10.0 mi SW 9.2 mph - N/A   Overcast
1:35 PM 80.6 °F 81.5 °F 60.8 °F 51% 29.89 in 10.0 mi SSW 6.9 mph - N/A   Overcast
1:55 PM 82.4 °F 82.9 °F 60.8 °F 48% 29.89 in 10.0 mi SW 10.4 mph - N/A   Overcast
2:15 PM 80.6 °F 81.8 °F 62.6 °F 54% 29.89 in 10.0 mi SW 10.4 mph - N/A   Overcast
2:35 PM 80.6 °F 81.8 °F 62.6 °F 54% 29.89 in 10.0 mi SSW 9.2 mph - N/A   Overcast
2:55 PM 80.6 °F 81.5 °F 60.8 °F 51% 29.89 in 10.0 mi SW 6.9 mph - N/A   Overcast
3:15 PM 80.6 °F 81.8 °F 62.6 °F 54% 29.89 in 10.0 mi SW 6.9 mph - N/A   Overcast
3:35 PM 82.4 °F 83.4 °F 62.6 °F 51% 29.88 in 10.0 mi West 6.9 mph - N/A   Mostly Cloudy
3:55 PM 82.4 °F 83.4 °F 62.6 °F 51% 29.87 in 10.0 mi SW 8.1 mph - N/A   Mostly Cloudy
4:15 PM 82.4 °F 83.4 °F 62.6 °F 51% 29.88 in 10.0 mi WSW 8.1 mph - N/A   Overcast
4:35 PM 82.4 °F 83.4 °F 62.6 °F 51% 29.88 in 10.0 mi West 11.5 mph - N/A   Overcast
4:55 PM 71.6 °F - 57.2 °F 60% 29.91 in 10.0 mi North 16.1 mph 31.1 mph N/A   Overcast
5:15 PM 68.0 °F - 60.8 °F 78% 29.93 in 5.0 mi NNE 12.7 mph 18.4 mph 0.06 in Rain Light Rain
5:35 PM 66.2 °F - 60.8 °F 83% 29.93 in 10.0 mi NNE 12.7 mph - 0.06 in   Overcast
5:55 PM 64.4 °F - 62.6 °F 94% 29.96 in 7.0 mi ENE 10.4 mph - 0.06 in   Overcast
6:15 PM 64.4 °F - 62.6 °F 94% 29.93 in 10.0 mi ESE 10.4 mph - N/A   Overcast
6:35 PM 64.4 °F - 62.6 °F 94% 29.91 in 7.0 mi East 13.8 mph - N/A   Overcast
6:55 PM 64.4 °F - 60.8 °F 88% 29.95 in 10.0 mi East 6.9 mph - N/A   Overcast
7:15 PM 64.4 °F - 60.8 °F 88% 29.96 in 10.0 mi ENE 9.2 mph - N/A   Overcast
7:35 PM 64.4 °F - 60.8 °F 88% 29.99 in 10.0 mi NE 6.9 mph - N/A Thunderstorm Overcast
7:55 PM 64.4 °F - 59.0 °F 83% 29.99 in 10.0 mi NE 10.4 mph - N/A   Overcast
8:15 PM 62.6 °F - 59.0 °F 88% 30.01 in 7.0 mi NE 11.5 mph - N/A Rain , Thunderstorm Light Thunderstorms and Rain
8:35 PM 60.8 °F - 59.0 °F 94% 30.01 in 7.0 mi ENE 12.7 mph - N/A Thunderstorm Thunderstorm
8:55 PM 64.4 °F - 59.0 °F 83% 30.12 in 3.0 mi WNW 9.2 mph 35.7 mph 0.23 in Rain , Thunderstorm Heavy Thunderstorms and Rain
9:15 PM 62.6 °F - 59.0 °F 88% 30.08 in 7.0 mi North 6.9 mph 13.8 mph 0.10 in Rain Light Rain
9:35 PM 62.6 °F - 59.0 °F 88% 30.04 in 10.0 mi ENE 12.7 mph - 0.11 in Rain , Thunderstorm Light Thunderstorms and Rain
9:55 PM 62.6 °F - 59.0 °F 88% 30.04 in 10.0 mi East 9.2 mph - 0.11 in Thunderstorm Scattered Clouds
10:15 PM 62.6 °F - 59.0 °F 88% 30.00 in 10.0 mi ENE 13.8 mph - N/A   Scattered Clouds
10:35 PM 62.6 °F - 59.0 °F 88% 30.01 in 10.0 mi ESE 8.1 mph - N/A Rain Light Rain
10:55 PM 62.6 °F - 59.0 °F 88% 30.03 in 10.0 mi East 8.1 mph - N/A   Clear
11:15 PM 60.8 °F - 59.0 °F 94% 30.03 in 10.0 mi ENE 6.9 mph - N/A   Scattered Clouds
11:35 PM 60.8 °F - 59.0 °F 94% 30.01 in 10.0 mi ESE 9.2 mph - N/A   Scattered Clouds
11:55 PM 60.8 °F - 59.0 °F 94% 30.02 in 10.0 mi ESE 4.6 mph - N/A   Clear